Weather History for Kearney, NE

Change the Weather History Date:

Thursday, May 8, 2014

  Actual Average Record
Temperature  
Mean Temperature 54 °F 57 °F  
Max Temperature 63 °F 69 °F 97 °F (1934)
Min Temperature 45 °F 45 °F 31 °F (1938)
Degree Days  
Heating Degree Days 11 9  
Month to date heating degree days 60 81  
Cooling Degree Days 0 1  
Growing Degree Days 3 (Base 50)    
Moisture  
Dew Point 44 °F    
Average Humidity 70    
Maximum Humidity 89    
Minimum Humidity 51    
Precipitation  
Precipitation 0.00 in - 1.47 in (1965)
Sea Level Pressure  
Sea Level Pressure 29.70 in    
Wind  
Wind Speed 15 mph (NNW)    
Max Wind Speed 29 mph    
Max Gust Speed 36 mph    
Visibility 10 miles    
Events      
T = Trace of Precipitation, MM = Missing Value Source: NWS Daily Summary

Daily Weather History Graph

Daily Weather History Graph

Search for Another Location

Airport:

Trip Planner

Search our weather history database for the weather conditions in past years. The results will help you decide how hot, cold, wet, or windy it might be!

Date:

Astronomy

May. 08, 2014 Rise Set
Actual Time 6:26 AM CDT 8:39 PM CDT
Civil Twilight 5:55 AM CDT 9:09 PM CDT
Nautical Twilight 5:18 AM CDT 9:47 PM CDT
Astronomical Twilight 4:37 AM CDT 10:28 PM CDT
Moon 2:39 PM CDT (5/8) 3:00 AM CDT (5/8)
Length of Visible Light 15h 14m
Length of Day
14h 13m
Waxing Gibbous, 65% of the Moon is Illuminated
May 8
Waxing Gibbous
May 14
Full
May 21
Last Quarter
May 28
New
Jun 5
First Quarter

Hourly Weather History & Observations

Time (CDT) Temp. Windchill Dew Point Humidity Pressure Visibility Wind Dir Wind Speed Gust Speed Precip Events Conditions
12:15 AM 60.8 °F - 51.8 °F 72% 29.68 in 10.0 mi North 13.8 mph - N/A   Partly Cloudy
12:35 AM 60.8 °F - 51.8 °F 72% 29.65 in 10.0 mi NNE 12.7 mph 17.3 mph N/A   Partly Cloudy
12:55 AM 60.8 °F - 50.0 °F 68% 29.64 in 10.0 mi NNE 23.0 mph 27.6 mph N/A   Scattered Clouds
1:15 AM 60.8 °F - 50.0 °F 68% 29.64 in 10.0 mi NE 19.6 mph - N/A   Mostly Cloudy
1:35 AM 60.8 °F - 50.0 °F 68% 29.64 in 10.0 mi NE 12.7 mph - N/A   Overcast
1:55 AM 59.0 °F - 48.2 °F 67% 29.66 in 10.0 mi NE 9.2 mph - N/A   Mostly Cloudy
2:15 AM 59.0 °F - 48.2 °F 67% 29.64 in 10.0 mi NE 4.6 mph - N/A   Mostly Cloudy
2:35 AM 57.2 °F - 50.0 °F 77% 29.62 in 10.0 mi ENE 12.7 mph - N/A   Mostly Cloudy
2:55 AM 57.2 °F - 48.2 °F 72% 29.63 in 10.0 mi NE 10.4 mph - N/A   Partly Cloudy
3:15 AM 55.4 °F - 48.2 °F 77% 29.63 in 10.0 mi NNE 8.1 mph - N/A   Partly Cloudy
3:35 AM 55.4 °F - 48.2 °F 77% 29.61 in 10.0 mi North 10.4 mph - N/A   Mostly Cloudy
3:55 AM 55.4 °F - 48.2 °F 77% 29.62 in 10.0 mi NNE 10.4 mph - N/A   Overcast
4:15 AM 55.4 °F - 48.2 °F 77% 29.61 in 10.0 mi North 10.4 mph - N/A   Overcast
4:35 AM 55.4 °F - 48.2 °F 77% 29.61 in 10.0 mi North 13.8 mph 19.6 mph N/A   Overcast
4:55 AM 55.4 °F - 48.2 °F 77% 29.61 in 10.0 mi North 16.1 mph - N/A   Overcast
5:15 AM 55.4 °F - 48.2 °F 77% 29.60 in 10.0 mi NNE 18.4 mph - N/A   Overcast
5:35 AM 55.4 °F - 48.2 °F 77% 29.60 in 10.0 mi NNE 13.8 mph - N/A   Overcast
5:55 AM 53.6 °F - 48.2 °F 82% 29.59 in 10.0 mi NNE 11.5 mph - N/A   Mostly Cloudy
6:15 AM 53.6 °F - 48.2 °F 82% 29.59 in 10.0 mi NNE 10.4 mph - N/A   Mostly Cloudy
6:35 AM 53.6 °F - 48.2 °F 82% 29.59 in 10.0 mi NE 11.5 mph - N/A   Scattered Clouds
6:55 AM 53.6 °F - 48.2 °F 82% 29.58 in 10.0 mi NNE 9.2 mph - N/A   Clear
7:15 AM 53.6 °F - 48.2 °F 82% 29.59 in 10.0 mi North 6.9 mph - N/A   Scattered Clouds
7:35 AM 53.6 °F - 48.2 °F 82% 29.60 in 9.0 mi ENE 11.5 mph - N/A   Scattered Clouds
7:55 AM 53.6 °F - 50.0 °F 88% 29.59 in 8.0 mi NNE 8.1 mph - N/A   Clear
8:15 AM 55.4 °F - 51.8 °F 88% 29.59 in 9.0 mi NNE 9.2 mph - N/A   Partly Cloudy
8:35 AM 57.2 °F - 51.8 °F 82% 29.57 in 9.0 mi NE 9.2 mph - N/A   Clear
8:55 AM 57.2 °F - 53.6 °F 88% 29.58 in 10.0 mi NE 11.5 mph - N/A   Clear
9:15 AM 60.8 °F - 53.6 °F 77% 29.58 in 10.0 mi ENE 6.9 mph - N/A   Clear
9:35 AM 60.8 °F - 53.6 °F 77% 29.60 in 10.0 mi Calm Calm - N/A   Clear
9:55 AM 62.6 °F - 53.6 °F 72% 29.60 in 10.0 mi West 4.6 mph - N/A   Scattered Clouds
10:15 AM 62.6 °F - 53.6 °F 72% 29.60 in 10.0 mi West 9.2 mph - N/A   Overcast
10:35 AM 62.6 °F - 51.8 °F 68% 29.61 in 10.0 mi WNW 12.7 mph - N/A   Overcast
10:55 AM 62.6 °F - 51.8 °F 68% 29.61 in 10.0 mi West 16.1 mph - N/A   Mostly Cloudy
11:15 AM 62.6 °F - 51.8 °F 68% 29.62 in 10.0 mi West 12.7 mph - N/A   Mostly Cloudy
11:35 AM 60.8 °F - 51.8 °F 72% 29.65 in 10.0 mi West 18.4 mph - N/A   Mostly Cloudy
11:55 AM 60.8 °F - 50.0 °F 68% 29.66 in 10.0 mi West 16.1 mph - N/A   Overcast
12:15 PM 55.4 °F - 48.2 °F 77% 29.68 in 10.0 mi West 21.9 mph - N/A   Overcast
12:35 PM 51.8 °F - 46.4 °F 82% 29.70 in 5.0 mi West 24.2 mph 32.2 mph N/A   Overcast
12:55 PM 51.8 °F - 44.6 °F 76% 29.70 in 10.0 mi West 24.2 mph 32.2 mph N/A   Overcast
1:15 PM 53.6 °F - 44.6 °F 72% 29.70 in 10.0 mi West 25.3 mph 31.1 mph N/A   Overcast
1:35 PM 55.4 °F - 44.6 °F 67% 29.71 in 10.0 mi West 21.9 mph 28.8 mph N/A   Overcast
1:55 PM 55.4 °F - 42.8 °F 63% 29.71 in 10.0 mi West 21.9 mph 31.1 mph N/A   Mostly Cloudy
2:15 PM 55.4 °F - 42.8 °F 63% 29.71 in 10.0 mi West 24.2 mph 29.9 mph N/A   Mostly Cloudy
2:35 PM 57.2 °F - 41.0 °F 55% 29.72 in 10.0 mi WNW 21.9 mph 31.1 mph N/A   Mostly Cloudy
2:55 PM 57.2 °F - 39.2 °F 51% 29.72 in 10.0 mi WNW 19.6 mph 33.4 mph N/A   Mostly Cloudy
3:15 PM 57.2 °F - 39.2 °F 51% 29.72 in 10.0 mi WNW 28.8 mph 34.5 mph N/A   Scattered Clouds
3:35 PM 57.2 °F - 39.2 °F 51% 29.72 in 10.0 mi WNW 25.3 mph 34.5 mph N/A   Partly Cloudy
3:55 PM 57.2 °F - 39.2 °F 51% 29.72 in 10.0 mi WNW 28.8 mph 35.7 mph N/A   Scattered Clouds
4:15 PM 57.2 °F - 39.2 °F 51% 29.73 in 10.0 mi WNW 24.2 mph 35.7 mph N/A   Scattered Clouds
4:35 PM 57.2 °F - 39.2 °F 51% 29.74 in 10.0 mi WNW 23.0 mph 35.7 mph N/A   Partly Cloudy
4:55 PM 57.2 °F - 39.2 °F 51% 29.75 in 10.0 mi WNW 25.3 mph 32.2 mph N/A   Scattered Clouds
5:15 PM 57.2 °F - 37.4 °F 48% 29.76 in 10.0 mi NW 18.4 mph 28.8 mph N/A   Partly Cloudy
5:35 PM 55.4 °F - 37.4 °F 51% 29.78 in 10.0 mi NW 19.6 mph 28.8 mph N/A   Partly Cloudy
5:55 PM 55.4 °F - 37.4 °F 51% 29.79 in 10.0 mi NW 18.4 mph 29.9 mph N/A   Partly Cloudy
6:15 PM 55.4 °F - 37.4 °F 51% 29.80 in 10.0 mi NW 21.9 mph 27.6 mph N/A   Scattered Clouds
6:35 PM 53.6 °F - 37.4 °F 54% 29.81 in 10.0 mi NW 19.6 mph 25.3 mph N/A   Scattered Clouds
6:55 PM 53.6 °F - 37.4 °F 54% 29.81 in 10.0 mi NW 20.7 mph 27.6 mph N/A   Scattered Clouds
7:15 PM 53.6 °F - 37.4 °F 54% 29.82 in 10.0 mi WNW 20.7 mph 27.6 mph N/A   Scattered Clouds
7:35 PM 53.6 °F - 37.4 °F 54% 29.83 in 10.0 mi NW 18.4 mph 26.5 mph N/A   Partly Cloudy
7:55 PM 53.6 °F - 37.4 °F 54% 29.84 in 10.0 mi NW 18.4 mph - N/A   Partly Cloudy
8:15 PM 51.8 °F - 37.4 °F 58% 29.86 in 10.0 mi WNW 17.3 mph 23.0 mph N/A   Scattered Clouds
8:35 PM 50.0 °F - 35.6 °F 58% 29.86 in 10.0 mi NW 17.3 mph 21.9 mph N/A   Partly Cloudy
8:55 PM 50.0 °F - 35.6 °F 58% 29.87 in 10.0 mi WNW 15.0 mph 21.9 mph N/A   Mostly Cloudy
9:15 PM 48.2 °F - 35.6 °F 62% 29.88 in 10.0 mi NW 17.3 mph 25.3 mph N/A   Overcast
9:35 PM 48.2 °F - 35.6 °F 62% 29.89 in 10.0 mi NW 20.7 mph 24.2 mph N/A   Overcast
9:55 PM 48.2 °F - 35.6 °F 62% 29.90 in 10.0 mi NW 13.8 mph 23.0 mph N/A   Overcast
10:15 PM 46.4 °F 41.1 °F 35.6 °F 66% 29.90 in 10.0 mi WNW 11.5 mph - N/A   Scattered Clouds
10:35 PM 46.4 °F 41.1 °F 35.6 °F 66% 29.91 in 10.0 mi WNW 11.5 mph - N/A   Clear
10:55 PM 44.6 °F 40.2 °F 35.6 °F 71% 29.91 in 10.0 mi WNW 8.1 mph - N/A   Scattered Clouds
11:15 PM 44.6 °F 40.2 °F 35.6 °F 71% 29.91 in 10.0 mi WNW 8.1 mph - N/A   Overcast
11:35 PM 44.6 °F 40.7 °F 35.6 °F 71% 29.91 in 10.0 mi NW 6.9 mph - N/A   Overcast
11:55 PM 44.6 °F 40.7 °F 35.6 °F 71% 29.90 in 10.0 mi WNW 6.9 mph - N/A   Scattered Clouds